• In Kazakhstan
  • List of Countries
  • For 7 days
  • Water Temperature
  • Weather Map
  • News
  • Weather Widgets
  • user-avatar
    Login

    Hourly Weather Vatican

    Today, 17 September, Tuesday

    Time Temperature Precipitation Wind Pressure Humidity
    00:00 +24°C° 0 mm 1 mps 762 mmHg 62%
    01:00 +24°C° 0 mm 1 mps 762 mmHg 64%
    02:00 +23°C° 0 mm 1 mps 761 mmHg 64%
    03:00 +23°C° 0 mm 1 mps 761 mmHg 64%
    04:00 +23°C° 0 mm 2 mps 761 mmHg 64%
    05:00 +23°C° 0 mm 1 mps 761 mmHg 62%
    06:00 +23°C° 0 mm 1 mps 761 mmHg 61%
    07:00 +23°C° 0 mm 1 mps 761 mmHg 60%
    08:00 +25°C° 0 mm 1 mps 761 mmHg 54%
    09:00 +24°C° 0 mm 0 mps 761 mmHg 48%
    10:00 +26°C° 0 mm 0 mps 761 mmHg 43%
    11:00 +28°C° 0 mm 1 mps 761 mmHg 43%
    12:00 +29°C° 0 mm 2 mps 761 mmHg 43%
    13:00 +29°C° 0 mm 3 mps 760 mmHg 43%
    14:00 +29°C° 0 mm 3 mps 760 mmHg 46%
    15:00 +28°C° 0 mm 3 mps 760 mmHg 49%
    16:00 +28°C° 0 mm 4 mps 759 mmHg 51%
    17:00 +27°C° 0 mm 3 mps 759 mmHg 56%
    18:00 +26°C° 0 mm 2 mps 760 mmHg 62%
    19:00 +25°C° 0 mm 1 mps 760 mmHg 67%
    20:00 +25°C° 0 mm 1 mps 760 mmHg 68%
    21:00 +25°C° 0 mm 1 mps 760 mmHg 69%
    22:00 +24°C° 0 mm 1 mps 760 mmHg 70%
    23:00 +24°C° 0 mm 1 mps 760 mmHg 71%

    Tomorrow, 18 September, Wednesday

    Time Temperature Precipitation Wind Pressure Humidity
    00:00 +24°C° 0 mm 1 mps 760 mmHg 72%
    01:00 +24°C° 0 mm 1 mps 760 mmHg 73%
    02:00 +23°C° 0 mm 1 mps 760 mmHg 74%
    03:00 +23°C° 0 mm 2 mps 759 mmHg 74%
    04:00 +23°C° 0 mm 2 mps 759 mmHg 75%
    05:00 +23°C° 0 mm 2 mps 759 mmHg 73%
    06:00 +23°C° 0 mm 2 mps 760 mmHg 72%
    07:00 +24°C° 0 mm 3 mps 760 mmHg 71%
    08:00 +25°C° 0 mm 3 mps 760 mmHg 66%
    09:00 +26°C° 0 mm 3 mps 760 mmHg 62%
    10:00 +28°C° 0 mm 3 mps 760 mmHg 58%
    11:00 +28°C° 0 mm 3 mps 760 mmHg 59%
    12:00 +28°C° 0 mm 4 mps 759 mmHg 59%
    13:00 +29°C° 0 mm 4 mps 759 mmHg 60%
    14:00 +28°C° 0 mm 4 mps 759 mmHg 63%
    15:00 +28°C° 0 mm 3 mps 759 mmHg 65%
    16:00 +28°C° 0 mm 3 mps 759 mmHg 68%
    17:00 +27°C° 0 mm 3 mps 759 mmHg 72%
    18:00 +26°C° 0 mm 2 mps 759 mmHg 76%
    19:00 +26°C° 0 mm 2 mps 759 mmHg 80%
    20:00 +25°C° 0.4 mm 2 mps 759 mmHg 81%
    21:00 +25°C° 0.4 mm 2 mps 760 mmHg 81%
    22:00 +25°C° 0.4 mm 3 mps 760 mmHg 81%
    23:00 +25°C° 0.4 mm 3 mps 760 mmHg 81%

    Day after tomorrow, 19 September, Thursday

    Time Temperature Precipitation Wind Pressure Humidity
    00:00 +25°C° 0.4 mm 3 mps 760 mmHg 82%
    01:00 +25°C° 0.4 mm 3 mps 760 mmHg 82%
    02:00 +25°C° 1.5 mm 3 mps 759 mmHg 83%
    03:00 +23°C° 1.5 mm 4 mps 759 mmHg 84%
    04:00 +23°C° 1.5 mm 4 mps 759 mmHg 85%
    05:00 +23°C° 1 mm 4 mps 759 mmHg 84%
    06:00 +23°C° 1 mm 4 mps 759 mmHg 82%
    07:00 +24°C° 1 mm 3 mps 759 mmHg 81%
    08:00 +26°C° 0.9 mm 4 mps 759 mmHg 75%
    09:00 +27°C° 0.9 mm 4 mps 759 mmHg 68%
    10:00 +28°C° 0.9 mm 4 mps 760 mmHg 62%
    11:00 +28°C° 0.2 mm 4 mps 760 mmHg 62%
    12:00 +29°C° 0.2 mm 4 mps 760 mmHg 61%
    13:00 +29°C° 0.2 mm 4 mps 760 mmHg 60%
    14:00 +28°C° 0.4 mm 4 mps 760 mmHg 63%
    15:00 +28°C° 0.4 mm 3 mps 760 mmHg 65%
    16:00 +28°C° 0.4 mm 3 mps 759 mmHg 67%
    17:00 +27°C° 0.9 mm 2 mps 760 mmHg 68%
    18:00 +26°C° 0.9 mm 1 mps 760 mmHg 70%
    19:00 +26°C° 0.9 mm 1 mps 760 mmHg 72%
    20:00 +26°C° 0.2 mm 1 mps 761 mmHg 71%
    21:00 +25°C° 0.2 mm 1 mps 761 mmHg 70%
    22:00 +25°C° 0.2 mm 2 mps 762 mmHg 70%
    23:00 +25°C° 0.3 mm 2 mps 762 mmHg 71%

    20 September, Friday

    Time Temperature Precipitation Wind Pressure Humidity
    00:00 +24°C° 0.3 mm 3 mps 762 mmHg 72%
    01:00 +24°C° 0.3 mm 3 mps 762 mmHg 73%
    02:00 +22°C° 0.9 mm 3 mps 762 mmHg 73%
    03:00 +22°C° 0.9 mm 3 mps 762 mmHg 73%
    04:00 +21°C° 0.9 mm 3 mps 762 mmHg 73%
    05:00 +21°C° 0.1 mm 3 mps 762 mmHg 72%
    06:00 +21°C° 0.1 mm 3 mps 762 mmHg 72%
    07:00 +21°C° 0.1 mm 3 mps 762 mmHg 71%
    08:00 +24°C° 0 mm 2 mps 762 mmHg 66%
    09:00 +25°C° 0 mm 2 mps 763 mmHg 62%
    10:00 +27°C° 0 mm 2 mps 763 mmHg 57%
    11:00 +27°C° 0 mm 2 mps 763 mmHg 57%
    12:00 +27°C° 0 mm 2 mps 763 mmHg 57%
    13:00 +28°C° 0 mm 2 mps 763 mmHg 56%
    14:00 +28°C° 0.1 mm 2 mps 763 mmHg 59%
    15:00 +27°C° 0.1 mm 2 mps 763 mmHg 61%
    16:00 +27°C° 0.1 mm 2 mps 762 mmHg 64%
    17:00 +26°C° 0 mm 2 mps 763 mmHg 67%
    18:00 +26°C° 0 mm 2 mps 763 mmHg 70%
    19:00 +25°C° 0 mm 2 mps 763 mmHg 73%
    20:00 +25°C° 0 mm 2 mps 763 mmHg 75%
    21:00 +24°C° 0 mm 2 mps 764 mmHg 76%
    22:00 +24°C° 0 mm 3 mps 764 mmHg 78%
    23:00 +24°C° 0 mm 2 mps 764 mmHg 74%

    21 September, Saturday

    Time Temperature Precipitation Wind Pressure Humidity
    00:00 +24°C° 0 mm 2 mps 764 mmHg 70%
    01:00 +23°C° 0 mm 2 mps 764 mmHg 66%
    02:00 +23°C° 0 mm 2 mps 764 mmHg 67%
    03:00 +23°C° 0 mm 2 mps 764 mmHg 69%
    04:00 +21°C° 0 mm 2 mps 764 mmHg 70%
    05:00 +21°C° 0 mm 2 mps 764 mmHg 70%
    06:00 +21°C° 0 mm 2 mps 764 mmHg 70%
    07:00 +21°C° 0 mm 2 mps 764 mmHg 70%
    08:00 +24°C° 0 mm 2 mps 764 mmHg 65%
    09:00 +25°C° 0 mm 2 mps 764 mmHg 61%
    10:00 +27°C° 0 mm 2 mps 764 mmHg 57%
    11:00 +27°C° 0 mm 2 mps 764 mmHg 58%
    12:00 +28°C° 0 mm 3 mps 764 mmHg 58%
    13:00 +28°C° 0 mm 3 mps 764 mmHg 58%
    14:00 +28°C° 0 mm 3 mps 764 mmHg 59%
    15:00 +27°C° 0 mm 3 mps 764 mmHg 59%
    16:00 +27°C° 0 mm 2 mps 764 mmHg 59%
    17:00 +26°C° 0 mm 2 mps 764 mmHg 62%
    18:00 +26°C° 0 mm 1 mps 764 mmHg 65%
    19:00 +25°C° 0 mm 1 mps 764 mmHg 67%
    20:00 +25°C° 0 mm 1 mps 764 mmHg 68%
    21:00 +25°C° 0 mm 2 mps 764 mmHg 68%
    22:00 +24°C° 0 mm 2 mps 764 mmHg 69%
    23:00 +24°C° 0 mm 2 mps 764 mmHg 69%

    22 September, Sunday

    Time Temperature Precipitation Wind Pressure Humidity
    00:00 +24°C° 0 mm 2 mps 764 mmHg 69%
    01:00 +24°C° 0 mm 1 mps 764 mmHg 70%
    02:00 +24°C° 0 mm 2 mps 764 mmHg 71%
    03:00 +23°C° 0 mm 2 mps 764 mmHg 72%
    04:00 +23°C° 0 mm 2 mps 764 mmHg 73%
    05:00 +23°C° 0 mm 2 mps 764 mmHg 73%
    06:00 +23°C° 0 mm 2 mps 765 mmHg 72%
    07:00 +24°C° 0 mm 2 mps 765 mmHg 71%
    08:00 +25°C° 0 mm 3 mps 765 mmHg 67%
    09:00 +26°C° 0 mm 3 mps 765 mmHg 62%
    10:00 +27°C° 0 mm 4 mps 765 mmHg 57%
    11:00 +28°C° 0 mm 4 mps 765 mmHg 57%
    12:00 +28°C° 0 mm 5 mps 765 mmHg 56%
    13:00 +29°C° 0 mm 5 mps 764 mmHg 55%
    14:00 +28°C° 0 mm 5 mps 764 mmHg 58%
    15:00 +28°C° 0 mm 4 mps 764 mmHg 61%
    16:00 +27°C° 0 mm 3 mps 764 mmHg 65%
    17:00 +27°C° 0 mm 3 mps 764 mmHg 68%
    18:00 +26°C° 0 mm 3 mps 764 mmHg 71%
    19:00 +26°C° 0 mm 3 mps 765 mmHg 74%
    20:00 +25°C° 0 mm 2 mps 765 mmHg 74%
    21:00 +25°C° 0 mm 2 mps 765 mmHg 75%
    22:00 +25°C° 0 mm 2 mps 765 mmHg 75%
    23:00 +25°C° 0 mm 2 mps 766 mmHg 75%
    Show more